Location: Unspecified
(50.0000°N, 15.0000°E)
Time: 03:04:06
(UTC+01:00)

ISS - Pass Details

Date: 06 December 2021
Orbit: 413 x 422 km, 51.6° (Epoch: 22 January)

Event Time Altitude Azimuth Distance (km) Brightness Sun altitude
Rises 17:53:01 0° 286° (WNW) 2,384 1.1 -17.4°
Reaches altitude 10° 17:55:21 10° 273° (W) 1,514 0.2 -17.7°
Maximum altitude 17:58:11 25° 216° (SW) 899 -1.6 -18.2°
Drops below altitude 10° 18:01:00 10° 159° (SSE) 1,501 -1.0 -18.6°
Enters shadow 18:01:10 - 158° (SSE) 1,557 -1.0 -18.7°
